Plant City, FL

1:52 PM EST on December 06, 2019 (GMT -0500)
Plant City Municipal

Weather History for KPCM - November, 2019

Change the Weather History Date:

Monday, November 11, 2019

  Actual Average Record
Temperature  
Mean Temperature 71 °F -  
Max Temperature 82 °F 79 °F 90 °F (1946)
Min Temperature 60 °F 55 °F 35 °F (1956)
Cooling Degree Days 6    
Growing Degree Days 21 (Base 50)    
Moisture  
Dew Point 64 °F    
Average Humidity 80    
Maximum Humidity 100    
Minimum Humidity 54    
Precipitation  
Precipitation 0.00 in - - ()
Sea Level Pressure  
Sea Level Pressure 30.11 in    
Wind  
Wind Speed 4 mph ()    
Max Wind Speed 9 mph    
Max Gust Speed 17 mph    
Visibility 10.0 miles    
Events      
Averages and records for this station are not official NWS values.
T = Trace of Precipitation, MM = Missing Value Source: Averaged Metar Reports

Daily Weather History Graph

Daily Weather History Graph

Search for Another Location

Airport or City:

Astronomy

Nov. 11, 2019 Rise Set
Actual Time 6:46 AM EST 5:37 PM EST
Civil Twilight 6:22 AM EST 6:02 PM EST
Nautical Twilight 5:54 AM EST 6:30 PM EST
Astronomical Twilight 5:26 AM EST 6:58 PM EST
Moon 5:25 PM EST (11/11) 5:47 AM EST (11/11)
Length of Visible Light 11h 40m
Length of Day
10h 51m
Waxing Gibbous, 99% of the Moon is Illuminated
Nov 11
Waxing Gibbous
Nov 12
Full
Nov 19
Last Quarter
Nov 26
New
Dec 4
First Quarter

Hourly Weather History & Observations

Time (EST) Temp. Heat Index Dew Point Humidity Pressure Visibility Wind Dir Wind Speed Gust Speed Precip Events Conditions
12:15 AM 62.6 °F - 60.8 °F 94% 30.16 in 10.0 mi NE 3.5 mph - N/A   Clear
12:35 AM 62.6 °F - 60.8 °F 94% 30.16 in 10.0 mi NNE 4.6 mph - N/A   Clear
12:55 AM 62.6 °F - 60.8 °F 94% 30.15 in 10.0 mi NE 4.6 mph - N/A   Clear
1:15 AM 60.8 °F - 59.0 °F 94% 30.15 in 10.0 mi NNE 4.6 mph - N/A   Clear
1:35 AM 60.8 °F - 59.0 °F 94% 30.15 in 10.0 mi NNE 4.6 mph - N/A   Clear
1:55 AM 60.8 °F - 59.0 °F 94% 30.15 in 10.0 mi NNE 4.6 mph - N/A   Clear
2:15 AM 60.8 °F - 59.0 °F 94% 30.14 in 10.0 mi NE 3.5 mph - N/A   Clear
2:35 AM 60.8 °F - 59.0 °F 94% 30.14 in 10.0 mi NE 4.6 mph - N/A   Clear
3:15 AM 60.8 °F - 59.0 °F 94% 30.14 in 10.0 mi NE 4.6 mph - N/A   Clear
3:35 AM 60.8 °F - 59.0 °F 94% 30.13 in 10.0 mi NE 4.6 mph - N/A   Clear
3:55 AM 60.8 °F - 59.0 °F 94% 30.13 in 10.0 mi NE 4.6 mph - N/A   Clear
4:15 AM 60.8 °F - 59.0 °F 94% 30.13 in 10.0 mi ENE 4.6 mph - N/A   Clear
4:35 AM 60.8 °F - 59.0 °F 94% 30.13 in 10.0 mi NE 4.6 mph - N/A   Clear
5:15 AM 60.8 °F - 57.2 °F 88% 30.13 in 10.0 mi NE 4.6 mph - N/A   Clear
5:35 AM 60.8 °F - 59.0 °F 94% 30.13 in 10.0 mi NE 4.6 mph - N/A   Clear
5:55 AM 60.8 °F - 59.0 °F 94% 30.14 in 10.0 mi NE 4.6 mph - N/A   Clear
6:15 AM 60.8 °F - 59.0 °F 94% 30.14 in 10.0 mi NNE 4.6 mph - N/A   Clear
6:35 AM 60.8 °F - 59.0 °F 94% 30.14 in 10.0 mi NE 4.6 mph - N/A   Clear
6:55 AM 62.6 °F - 59.0 °F 88% 30.15 in 10.0 mi NE 5.8 mph - N/A   Clear
7:15 AM 62.6 °F - 59.0 °F 88% 30.15 in 10.0 mi ENE 5.8 mph - N/A   Clear
7:35 AM 64.4 °F - 59.0 °F 83% 30.16 in 10.0 mi NE 4.6 mph - N/A   Clear
7:55 AM 66.2 °F - 60.8 °F 83% 30.16 in 10.0 mi ENE 5.8 mph - N/A   Clear
8:15 AM 68.0 °F - 60.8 °F 78% 30.16 in 10.0 mi ENE 6.9 mph - N/A   Clear
8:35 AM 69.8 °F - 62.6 °F 78% 30.17 in 10.0 mi NE 4.6 mph - N/A   Clear
8:55 AM 71.6 °F - 64.4 °F 78% 30.17 in 10.0 mi ENE 4.6 mph - N/A   Clear
9:15 AM 71.6 °F - 64.4 °F 78% 30.17 in 10.0 mi ENE 9.2 mph - N/A   Clear
9:35 AM 73.4 °F - 64.4 °F 73% 30.17 in 10.0 mi NE 6.9 mph - N/A   Clear
9:55 AM 75.2 °F - 66.2 °F 73% 30.16 in 10.0 mi NE 6.9 mph - N/A   Clear
10:15 AM 77.0 °F - 66.2 °F 69% 30.16 in 10.0 mi ENE 6.9 mph - N/A   Clear
10:35 AM 78.8 °F - 66.2 °F 65% 30.16 in 10.0 mi East 4.6 mph - N/A   Clear
10:55 AM 78.8 °F - 66.2 °F 65% 30.15 in 10.0 mi ENE 9.2 mph - N/A   Clear
11:15 AM 80.6 °F 82.7 °F 66.2 °F 61% 30.14 in 10.0 mi ENE 5.8 mph 17.3 mph N/A   Clear
11:35 AM 80.6 °F 82.7 °F 66.2 °F 61% 30.14 in 10.0 mi ESE 8.1 mph 16.1 mph N/A   Clear
11:55 AM 80.6 °F 82.7 °F 66.2 °F 61% 30.12 in 10.0 mi ENE 9.2 mph - N/A   Scattered Clouds
12:15 PM 80.6 °F 82.3 °F 64.4 °F 58% 30.12 in 10.0 mi ESE 5.8 mph 16.1 mph N/A   Scattered Clouds
12:35 PM 82.4 °F 83.9 °F 64.4 °F 54% 30.11 in 10.0 mi East 8.1 mph - N/A   Clear
12:55 PM 82.4 °F 84.6 °F 66.2 °F 58% 30.10 in 10.0 mi East 8.1 mph 12.7 mph N/A   Scattered Clouds
1:15 PM 82.4 °F 84.6 °F 66.2 °F 58% 30.09 in 10.0 mi ENE 8.1 mph - N/A   Mostly Cloudy
1:35 PM 82.4 °F 83.9 °F 64.4 °F 54% 30.08 in 10.0 mi NE 6.9 mph - N/A   Scattered Clouds
1:55 PM 82.4 °F 84.6 °F 66.2 °F 58% 30.07 in 10.0 mi SE 5.8 mph - N/A   Scattered Clouds
2:15 PM 82.4 °F 83.9 °F 64.4 °F 54% 30.07 in 10.0 mi ESE 4.6 mph - N/A   Scattered Clouds
2:35 PM 82.4 °F 83.9 °F 64.4 °F 54% 30.06 in 10.0 mi ESE 8.1 mph - N/A   Scattered Clouds
2:55 PM 82.4 °F 83.9 °F 64.4 °F 54% 30.06 in 10.0 mi East 6.9 mph - N/A   Mostly Cloudy
3:15 PM 80.6 °F 82.3 °F 64.4 °F 58% 30.06 in 10.0 mi SE 4.6 mph - N/A   Scattered Clouds
3:35 PM 82.4 °F 83.9 °F 64.4 °F 54% 30.05 in 10.0 mi ESE 4.6 mph - N/A   Clear
3:55 PM 82.4 °F 83.9 °F 64.4 °F 54% 30.05 in 10.0 mi East 5.8 mph - N/A   Clear
4:15 PM 80.6 °F 82.3 °F 64.4 °F 58% 30.05 in 10.0 mi East 5.8 mph - N/A   Clear
4:35 PM 80.6 °F 82.3 °F 64.4 °F 58% 30.05 in 10.0 mi East 5.8 mph - N/A   Clear
4:55 PM 80.6 °F 82.7 °F 66.2 °F 61% 30.05 in 10.0 mi ENE 3.5 mph - N/A   Clear
5:15 PM 78.8 °F - 66.2 °F 65% 30.04 in 10.0 mi Calm Calm - N/A   Clear
5:35 PM 75.2 °F - 66.2 °F 73% 30.04 in 10.0 mi East 3.5 mph - N/A   Clear
5:55 PM 71.6 °F - 66.2 °F 83% 30.04 in 10.0 mi Calm Calm - N/A   Clear
6:15 PM 71.6 °F - 66.2 °F 83% 30.04 in 10.0 mi Calm Calm - N/A   Clear
6:35 PM 71.6 °F - 66.2 °F 83% 30.05 in 10.0 mi Calm Calm - N/A   Scattered Clouds
7:35 PM 71.6 °F - 68.0 °F 88% 30.07 in 10.0 mi East 4.6 mph - N/A   Scattered Clouds
7:55 PM 71.6 °F - 68.0 °F 88% 30.07 in 10.0 mi East 3.5 mph - N/A   Scattered Clouds
8:15 PM 69.8 °F - 68.0 °F 94% 30.07 in 10.0 mi East 3.5 mph - N/A   Clear
8:35 PM 69.8 °F - 68.0 °F 94% 30.07 in 10.0 mi East 3.5 mph - N/A   Mostly Cloudy
8:55 PM 69.8 °F - 68.0 °F 94% 30.07 in 10.0 mi East 4.6 mph - N/A   Scattered Clouds
9:15 PM 69.8 °F - 68.0 °F 94% 30.07 in 10.0 mi East 4.6 mph - N/A   Clear
9:35 PM 69.8 °F - 68.0 °F 94% 30.08 in 10.0 mi East 4.6 mph - N/A   Clear
9:55 PM 69.8 °F - 68.0 °F 94% 30.08 in 10.0 mi East 3.5 mph - N/A   Clear
10:15 PM 69.8 °F - 68.0 °F 94% 30.07 in 10.0 mi East 3.5 mph - N/A   Scattered Clouds
10:35 PM 69.8 °F - 68.0 °F 94% 30.07 in 10.0 mi East 3.5 mph - N/A   Mostly Cloudy
10:55 PM 69.8 °F - 68.0 °F 94% 30.07 in 10.0 mi East 3.5 mph - N/A   Mostly Cloudy
11:15 PM 69.8 °F - 68.0 °F 94% 30.07 in 10.0 mi East 3.5 mph - N/A   Mostly Cloudy
11:35 PM 69.8 °F - 68.0 °F 94% 30.06 in 10.0 mi Calm Calm - N/A   Mostly Cloudy
11:55 PM 68.0 °F - 68.0 °F 100% 30.06 in 10.0 mi Calm Calm - N/A   Mostly Cloudy